Weather History for Belleville, IL

Change the Weather History Date:

Wednesday, January 1, 2014

  Actual Average Record
Temperature  
Mean Temperature 36 °F -  
Max Temperature 45 °F 38 °F 66 °F (1965)
Min Temperature 26 °F 20 °F -10 °F (1968)
Degree Days  
Heating Degree Days 30    
Moisture  
Dew Point 29 °F    
Average Humidity 87    
Maximum Humidity 100    
Minimum Humidity 53    
Precipitation  
Precipitation 0.00 in - - ()
Sea Level Pressure  
Sea Level Pressure 30.08 in    
Wind  
Wind Speed 9 mph (North)    
Max Wind Speed 17 mph    
Max Gust Speed 22 mph    
Visibility 7 miles    
Events Rain , Snow    
Averages and records for this station are not official NWS values.
T = Trace of Precipitation, MM = Missing Value Source: NWS Daily Summary

Daily Weather History Graph

Daily Weather History Graph

Search for Another Location

Airport:

Trip Planner

Search our weather history database for the weather conditions in past years. The results will help you decide how hot, cold, wet, or windy it might be!

Date:

Astronomy

Jan. 01, 2014 Rise Set
Actual Time 7:16 AM CST 4:49 PM CST
Civil Twilight 6:47 AM CST 5:18 PM CST
Nautical Twilight 6:14 AM CST 5:52 PM CST
Astronomical Twilight 5:41 AM CST 6:24 PM CST
Moon 7:08 AM CST 5:33 PM CST
Length of Visible Light 10h 31m
Length of Day
9h 32m
New Moon, 0% of the Moon is Illuminated
Jan 1
New Moon
Jan 7
First Quarter
Jan 15
Full
Jan 23
Last Quarter
Jan 30
New

Hourly Weather History & Observations

Time (CST) Temp. Windchill Dew Point Humidity Pressure Visibility Wind Dir Wind Speed Gust Speed Precip Events Conditions
12:58 AM 34.0 °F 26.6 °F 27.0 °F 75% 30.19 in 10.0 mi South 9.2 mph - N/A   Clear
1:58 AM 32.0 °F 25.6 °F 26.2 °F 79% 30.19 in 10.0 mi South 6.9 mph - N/A   Clear
2:58 AM 30.6 °F 25.8 °F 26.1 °F 83% 30.19 in 10.0 mi South 4.6 mph - N/A   Clear
3:58 AM 30.0 °F 24.1 °F 25.9 °F 85% 30.17 in 10.0 mi South 5.8 mph - N/A   Clear
4:58 AM 28.8 °F 23.7 °F 26.4 °F 91% 30.17 in 10.0 mi South 4.6 mph - N/A   Clear
5:58 AM 27.5 °F 18.6 °F 26.2 °F 95% 30.17 in 10.0 mi SSE 9.2 mph - N/A   Clear
6:58 AM 29.3 °F 23.2 °F 27.9 °F 94% 30.17 in 10.0 mi South 5.8 mph - N/A   Clear
7:58 AM 29.8 °F 23.9 °F 28.6 °F 95% 30.18 in 10.0 mi South 5.8 mph - N/A   Clear
8:58 AM 34.9 °F 28.3 °F 31.5 °F 87% 30.17 in 10.0 mi South 8.1 mph - N/A   Clear
9:58 AM 41.7 °F 34.8 °F 30.0 °F 63% 30.18 in 10.0 mi SSW 12.7 mph - N/A   Clear
10:58 AM 42.3 °F 36.8 °F 28.9 °F 59% 30.16 in 10.0 mi South 9.2 mph - N/A   Clear
11:58 AM 42.8 °F 38.0 °F 28.9 °F 58% 30.12 in 10.0 mi SSW 8.1 mph - N/A   Partly Cloudy
12:58 PM 44.6 °F 41.4 °F 29.3 °F 55% 30.09 in 10.0 mi South 5.8 mph - N/A   Partly Cloudy
1:58 PM 45.5 °F 41.8 °F 29.1 °F 53% 30.07 in 10.0 mi SSE 6.9 mph - N/A   Partly Cloudy
2:58 PM 43.9 °F 39.3 °F 29.3 °F 57% 30.05 in 10.0 mi SE 8.1 mph - N/A   Clear
3:58 PM 41.5 °F 37.8 °F 30.4 °F 65% 30.05 in 10.0 mi ESE 5.8 mph - N/A   Clear
4:58 PM 40.5 °F - 30.0 °F 66% 30.04 in 10.0 mi Variable 2.3 mph - N/A   Clear
5:58 PM 38.3 °F 33.9 °F 30.2 °F 73% 30.04 in 10.0 mi ESE 5.8 mph - N/A   Partly Cloudy
6:58 PM 36.7 °F 32.0 °F 30.6 °F 78% 30.04 in 10.0 mi North 5.8 mph - N/A   Scattered Clouds
7:58 PM 35.1 °F 27.9 °F 30.4 °F 83% 30.05 in 10.0 mi North 9.2 mph - N/A   Partly Cloudy
8:56 PM 32.0 °F 23.0 °F 28.4 °F 87% 30.04 in 10.0 mi North 11.5 mph - N/A Rain Light Rain
8:58 PM 33.3 °F 25.1 °F 28.9 °F 84% 30.06 in 10.0 mi North 10.4 mph - N/A Rain Light Rain
9:03 PM 32.0 °F 22.1 °F 30.2 °F 93% 30.04 in 7.0 mi North 13.8 mph - N/A Rain Light Rain
9:08 PM 32.0 °F 21.2 °F 30.2 °F 93% 30.04 in 4.0 mi North 16.1 mph - N/A Snow Light Snow
9:13 PM 32.0 °F 21.6 °F 30.2 °F 93% 30.04 in 2.0 mi North 15.0 mph - N/A Snow Light Snow
9:23 PM 32.0 °F 21.2 °F 32.0 °F 100% 30.04 in 2.5 mi North 16.1 mph 21.9 mph N/A Snow Light Snow
9:28 PM 32.0 °F 21.6 °F 32.0 °F 100% 30.04 in 4.0 mi North 15.0 mph - N/A Snow Light Snow
9:33 PM 32.0 °F 22.5 °F 32.0 °F 100% 30.04 in 5.0 mi North 12.7 mph - N/A   Overcast
9:38 PM 32.0 °F 22.5 °F 32.0 °F 100% 30.04 in 5.0 mi NNW 12.7 mph - N/A Snow Light Snow
9:43 PM 32.0 °F 23.0 °F 32.0 °F 100% 30.04 in 4.0 mi NNW 11.5 mph - N/A Snow Light Snow
9:48 PM 32.0 °F 21.2 °F 32.0 °F 100% 30.04 in 3.0 mi NNW 16.1 mph 20.7 mph N/A Snow Light Snow
9:53 PM 32.0 °F 21.2 °F 32.0 °F 100% 30.04 in 3.0 mi NNW 16.1 mph 20.7 mph N/A Snow Light Snow
9:58 PM 30.7 °F 19.6 °F 30.4 °F 99% 30.05 in 3.0 mi NNW 16.1 mph - 0.00 in Snow Light Snow
10:03 PM 30.2 °F 19.8 °F 30.2 °F 100% 30.04 in 4.0 mi North 13.8 mph - N/A Snow Light Snow
10:33 PM 28.4 °F 17.5 °F 28.4 °F 100% 30.04 in 5.0 mi North 13.8 mph 21.9 mph N/A   Overcast
10:43 PM 28.4 °F 16.2 °F 28.4 °F 100% 30.04 in 3.0 mi NNW 17.3 mph - N/A Snow Light Snow
10:58 PM 28.0 °F 16.5 °F 27.5 °F 98% 30.06 in 3.0 mi North 15.0 mph - 0.00 in Snow Light Snow
11:03 PM 28.4 °F 19.1 °F 26.6 °F 93% 30.03 in 2.5 mi North 10.4 mph - N/A Snow Light Snow
11:13 PM 26.6 °F 15.7 °F 26.6 °F 100% 30.03 in 2.0 mi North 12.7 mph 18.4 mph N/A Snow Light Snow
11:23 PM 26.6 °F 14.3 °F 26.6 °F 100% 30.03 in 3.0 mi North 16.1 mph 19.6 mph N/A Snow Light Snow
11:33 PM 26.6 °F 15.7 °F 26.6 °F 100% 30.03 in 4.0 mi North 12.7 mph 19.6 mph N/A Snow Light Snow
11:43 PM 26.6 °F 15.7 °F 26.6 °F 100% 30.03 in 4.0 mi North 12.7 mph - N/A Snow Light Snow
11:48 PM 26.6 °F 16.2 °F 24.8 °F 93% 30.03 in 4.0 mi North 11.5 mph 18.4 mph N/A Snow Light Snow
11:58 PM 26.1 °F 14.5 °F 25.5 °F 98% 30.05 in 3.0 mi North 13.8 mph - 0.00 in Snow Light Snow